Skagway, AK

1:39 AM AKST on January 24, 2017 (GMT -0900)
Skagway

Weather History for PAGY - October, 2012

Change the Weather History Date:

Monday, October 29, 2012

  Actual Average Record
Temperature  
Mean Temperature 28 °F -  
Max Temperature 30 °F 41 °F 55 °F (1965)
Min Temperature 24 °F 32 °F 19 °F (1984)
Degree Days  
Heating Degree Days 38    
Moisture  
Dew Point 7 °F    
Average Humidity 44    
Maximum Humidity 51    
Minimum Humidity 36    
Precipitation  
Precipitation 0.00 in - - ()
Sea Level Pressure  
Sea Level Pressure 30.05 in    
Wind  
Wind Speed 14 mph (NE)    
Max Wind Speed 22 mph    
Max Gust Speed 34 mph    
Visibility 10 miles    
Events      
Averages and records for this station are not official NWS values.
T = Trace of Precipitation, MM = Missing Value Source: NWS Daily Summary

Daily Weather History Graph

Daily Weather History Graph

Search for Another Location

Airport or City:

Trip Planner

Search our weather history database for the weather conditions in past years. The results will help you decide how hot, cold, wet, or windy it might be!

Date:

Astronomy

Oct. 29, 2012 Rise Set
Actual Time 8:15 AM AKDT 5:13 PM AKDT
Civil Twilight 7:31 AM AKDT 5:57 PM AKDT
Nautical Twilight 6:43 AM AKDT 6:45 PM AKDT
Astronomical Twilight 5:55 AM AKDT 7:32 PM AKDT
Moon 4:56 PM AKDT (10/29) 8:23 AM AKDT (10/29)
Length of Visible Light 10h 25m
Length of Day
8h 57m
Full, 100% of the Moon is Illuminated
Oct 29
Full
Nov 6
Last Quarter
Nov 13
New
Nov 20
First Quarter
Nov 28
Full

Hourly Weather History & Observations

Time (AKDT) Temp. Windchill Dew Point Humidity Pressure Visibility Wind Dir Wind Speed Gust Speed Precip Events Conditions
12:53 AM 27.0 °F 16.1 °F 8.1 °F 45% 30.13 in 10.0 mi NNE 12.7 mph 18.4 mph N/A   Clear
1:53 AM 27.0 °F 14.3 °F 8.1 °F 45% 30.13 in 10.0 mi NNE 17.3 mph 26.5 mph N/A   Clear
2:53 AM 27.0 °F 13.5 °F 8.1 °F 45% 30.12 in 10.0 mi NNE 19.6 mph 31.1 mph N/A   Clear
3:53 AM - - - N/A% 30.12 in 10.0 mi NNE 16.1 mph 27.6 mph N/A   Clear
4:53 AM - - - N/A% 30.12 in 10.0 mi North 11.5 mph 19.6 mph N/A   Clear
5:53 AM - - - N/A% 30.12 in 10.0 mi NNE 15.0 mph 29.9 mph N/A   Clear
6:53 AM - - - N/A% 30.12 in 10.0 mi NNE 16.1 mph 31.1 mph N/A   Clear
7:53 AM - - - N/A% 30.11 in 10.0 mi NNE 16.1 mph 29.9 mph N/A   Clear
8:53 AM - - - N/A% 30.11 in 10.0 mi NNE 13.8 mph 21.9 mph N/A   Clear
9:53 AM - - - N/A% 30.11 in 10.0 mi Variable 6.9 mph 27.6 mph N/A   Clear
10:53 AM - - - N/A% 30.10 in 10.0 mi NE 9.2 mph 34.5 mph N/A   Clear
11:53 AM - - - N/A% 30.07 in 10.0 mi NE 21.9 mph 29.9 mph N/A   Clear
12:53 PM 28.0 °F 14.6 °F 3.9 °F 36% 30.04 in 10.0 mi ENE 20.7 mph 27.6 mph N/A   Clear
1:53 PM - - - N/A% 30.03 in 10.0 mi NE 19.6 mph - N/A   Clear
2:53 PM 30.0 °F 17.2 °F - N/A% 30.01 in 10.0 mi NE 20.7 mph 27.6 mph N/A   Clear
3:53 PM 28.9 °F 16.1 °F 7.0 °F 40% 30.00 in 10.0 mi NE 19.6 mph 24.2 mph N/A   Clear
4:53 PM 28.0 °F 17.5 °F 7.0 °F 41% 29.99 in 10.0 mi NE 12.7 mph 23.0 mph N/A   Clear
5:53 PM 28.0 °F 18.6 °F 7.0 °F 41% 29.98 in 10.0 mi NE 10.4 mph - N/A   Clear
6:53 PM 26.1 °F 15.6 °F 6.1 °F 43% 29.97 in 10.0 mi NE 11.5 mph - N/A   Clear
7:53 PM 26.1 °F 16.2 °F 7.0 °F 44% 29.97 in 10.0 mi NE 10.4 mph - N/A   Clear
8:53 PM 26.1 °F 20.5 °F 7.0 °F 44% 29.97 in 10.0 mi NE 4.6 mph - N/A   Partly Cloudy
9:53 PM 25.0 °F 18.1 °F 7.0 °F 46% 29.97 in 10.0 mi NNE 5.8 mph - N/A   Partly Cloudy
10:53 PM 25.0 °F 19.3 °F 8.1 °F 49% 29.97 in 10.0 mi North 4.6 mph - N/A   Clear
11:53 PM 24.1 °F - 8.1 °F 51% 29.98 in 10.0 mi Calm Calm - N/A   Partly Cloudy